Weather History for Olney-Noble, IL

Change the Weather History Date:

Monday, February 18, 2013

  Actual Average (KEVV) Record (KEVV)
Temperature  
Mean Temperature 47 °F 37 °F  
Max Temperature 59 °F 47 °F 73 °F (1961)
Min Temperature 35 °F 28 °F -6 °F (1936)
Degree Days  
Heating Degree Days 18 28  
Month to date heating degree days 537  
Since 1 July heating degree days 3316  
Cooling Degree Days 0 0  
Month to date cooling degree days 0  
Year to date cooling degree days 0  
Moisture  
Dew Point 38 °F    
Average Humidity 75    
Maximum Humidity 93    
Minimum Humidity 59    
Precipitation  
Precipitation 0.44 in 0.11 in 3.38 in (2000)
Month to date precipitation 2.07  
Year to date precipitation 5.17  
Snow  
Snow 0.00 in 0.20 in 2.20 in (1979)
Month to date snowfall 2.7  
Since 1 July snowfall 9.6  
Snow Depth -    
Sea Level Pressure  
Sea Level Pressure 29.83 in    
Wind  
Wind Speed 14 mph (South)    
Max Wind Speed 24 mph    
Max Gust Speed 38 mph    
Visibility 10 miles    
Events Rain    
T = Trace of Precipitation, MM = Missing Value Source: NWS Daily Summary

Daily Weather History Graph

Daily Weather History Graph

Search for Another Location

Airport:

Trip Planner

Search our weather history database for the weather conditions in past years. The results will help you decide how hot, cold, wet, or windy it might be!

Date:

Astronomy

Feb. 18, 2013 Rise Set
Actual Time 6:39 AM CST 5:34 PM CST
Civil Twilight 6:12 AM CST 6:01 PM CST
Nautical Twilight 5:41 AM CST 6:32 PM CST
Astronomical Twilight 5:10 AM CST 7:03 PM CST
Moon 11:21 AM CST (2/18) 1:17 AM CST (2/18)
Length of Visible Light 11h 48m
Length of Day
10h 54m
First Quarter, 58% of the Moon is Illuminated
Feb 18
First Quarter
Feb 25
Full
Mar 4
Last Quarter
Mar 11
New
Mar 19
First Quarter

Hourly Weather History & Observations

Time (CST) Temp. Windchill Dew Point Humidity Pressure Visibility Wind Dir Wind Speed Gust Speed Precip Events Conditions
12:15 AM 35.6 °F 26.6 °F 24.8 °F 65% 30.03 in 10.0 mi SE 13.8 mph - N/A   Clear
12:35 AM 35.6 °F 27.1 °F 23.0 °F 60% 30.03 in 10.0 mi SE 12.7 mph - N/A   Clear
12:55 AM 35.6 °F 27.1 °F 24.8 °F 65% 30.01 in 10.0 mi SE 12.7 mph - N/A   Clear
1:15 AM 35.6 °F 27.1 °F 24.8 °F 65% 30.00 in 10.0 mi SE 12.7 mph - N/A   Clear
1:35 AM 35.6 °F 27.1 °F 24.8 °F 65% 30.00 in 10.0 mi SSE 12.7 mph 18.4 mph N/A   Clear
1:55 AM 35.6 °F 27.5 °F 24.8 °F 65% 30.00 in 10.0 mi SE 11.5 mph - N/A   Clear
2:15 AM 35.6 °F 26.6 °F 24.8 °F 65% 29.99 in 10.0 mi SE 13.8 mph - N/A   Clear
2:35 AM 35.6 °F 27.1 °F 24.8 °F 65% 29.98 in 10.0 mi SSE 12.7 mph - N/A   Clear
2:55 AM 35.6 °F 27.1 °F 24.8 °F 65% 29.98 in 10.0 mi SE 12.7 mph - N/A   Clear
3:15 AM 35.6 °F 27.5 °F 24.8 °F 65% 29.97 in 10.0 mi SE 11.5 mph - N/A   Clear
3:35 AM 35.6 °F 28.0 °F 24.8 °F 65% 29.97 in 10.0 mi SSE 10.4 mph - N/A   Clear
3:55 AM 35.6 °F 27.5 °F 24.8 °F 65% 29.96 in 10.0 mi SSE 11.5 mph - N/A   Clear
4:15 AM 35.6 °F 27.5 °F 24.8 °F 65% 29.96 in 10.0 mi SSE 11.5 mph - N/A   Clear
4:35 AM 35.6 °F 27.5 °F 26.6 °F 70% 29.96 in 10.0 mi SSE 11.5 mph - N/A   Clear
4:55 AM 35.6 °F 28.6 °F 26.6 °F 70% 29.96 in 10.0 mi SSE 9.2 mph - N/A   Clear
5:15 AM 37.4 °F 29.3 °F 26.6 °F 65% 29.95 in 10.0 mi SSE 12.7 mph 17.3 mph N/A   Clear
5:35 AM 37.4 °F 29.3 °F 26.6 °F 65% 29.94 in 10.0 mi SSE 12.7 mph 17.3 mph N/A   Clear
5:55 AM 37.4 °F 29.3 °F 26.6 °F 65% 29.94 in 10.0 mi SSE 12.7 mph - N/A   Clear
6:35 AM 37.4 °F 29.8 °F 28.4 °F 70% 29.93 in 10.0 mi SSE 11.5 mph 17.3 mph N/A   Clear
7:15 AM 39.2 °F 32.0 °F 30.2 °F 70% 29.93 in 10.0 mi SSE 11.5 mph - N/A   Clear
7:35 AM 39.2 °F 32.0 °F 32.0 °F 75% 29.93 in 10.0 mi SSE 11.5 mph 18.4 mph N/A   Clear
7:55 AM 42.8 °F 36.2 °F 33.8 °F 70% 29.93 in 10.0 mi South 12.7 mph 18.4 mph N/A   Clear
8:15 AM 42.8 °F 34.8 °F 33.8 °F 70% 29.92 in 10.0 mi South 17.3 mph 21.9 mph N/A   Clear
8:35 AM 44.6 °F 38.4 °F 35.6 °F 71% 29.92 in 10.0 mi South 12.7 mph 21.9 mph N/A   Clear
8:55 AM 46.4 °F 40.1 °F 35.6 °F 66% 29.92 in 10.0 mi South 15.0 mph 21.9 mph N/A   Clear
9:15 AM 48.2 °F - 37.4 °F 66% 29.91 in 10.0 mi South 11.5 mph 20.7 mph N/A   Clear
9:35 AM 48.2 °F - 39.2 °F 71% 29.90 in 10.0 mi South 12.7 mph 18.4 mph N/A   Clear
9:55 AM 51.8 °F - 41.0 °F 67% 29.89 in 10.0 mi South 15.0 mph 21.9 mph N/A   Clear
10:15 AM 51.8 °F - 42.8 °F 71% 29.89 in 10.0 mi South 16.1 mph 21.9 mph N/A   Clear
10:35 AM 53.6 °F - 42.8 °F 67% 29.89 in 10.0 mi South 13.8 mph 31.1 mph N/A   Scattered Clouds
10:55 AM 55.4 °F - 44.6 °F 67% 29.87 in 10.0 mi South 12.7 mph 25.3 mph N/A   Scattered Clouds
11:15 AM 57.2 °F - 44.6 °F 63% 29.88 in 10.0 mi South 16.1 mph 27.6 mph N/A   Clear
11:35 AM 55.4 °F - 44.6 °F 67% 29.87 in 10.0 mi South 15.0 mph 24.2 mph N/A   Scattered Clouds
11:55 AM 57.2 °F - 44.6 °F 63% 29.85 in 10.0 mi South 12.7 mph 26.5 mph N/A   Mostly Cloudy
12:15 PM 57.2 °F - 44.6 °F 63% 29.84 in 10.0 mi South 18.4 mph 28.8 mph N/A   Overcast
12:35 PM 57.2 °F - 44.6 °F 63% 29.83 in 10.0 mi South 13.8 mph 26.5 mph N/A   Overcast
12:55 PM 57.2 °F - 44.6 °F 63% 29.82 in 10.0 mi South 15.0 mph 25.3 mph N/A   Mostly Cloudy
1:15 PM 59.0 °F - 44.6 °F 59% 29.79 in 10.0 mi South 24.2 mph 31.1 mph N/A   Mostly Cloudy
1:35 PM 57.2 °F - 42.8 °F 59% 29.78 in 10.0 mi South 18.4 mph 28.8 mph N/A   Overcast
1:55 PM 57.2 °F - 42.8 °F 59% 29.79 in 10.0 mi South 12.7 mph 26.5 mph N/A Rain Light Rain
2:15 PM 55.4 °F - 42.8 °F 63% 29.78 in 10.0 mi South 16.1 mph 23.0 mph N/A Rain Light Rain
2:35 PM 53.6 °F - 44.6 °F 72% 29.78 in 10.0 mi South 16.1 mph 25.3 mph N/A Rain Light Rain
2:55 PM 51.8 °F - 44.6 °F 76% 29.77 in 10.0 mi South 15.0 mph 24.2 mph N/A Rain Light Rain
3:15 PM 51.8 °F - 44.6 °F 76% 29.77 in 7.0 mi South 17.3 mph 24.2 mph 0.02 in Rain Rain
3:35 PM 50.0 °F - 44.6 °F 82% 29.76 in 7.0 mi South 18.4 mph 31.1 mph 0.04 in Rain Light Rain
3:55 PM 50.0 °F - 44.6 °F 82% 29.75 in 10.0 mi South 16.1 mph 31.1 mph N/A Rain Light Rain
4:15 PM 48.2 °F - 44.6 °F 87% 29.74 in 10.0 mi South 13.8 mph 26.5 mph 0.03 in Rain Light Rain
4:35 PM 48.2 °F - 44.6 °F 87% 29.72 in 7.0 mi South 17.3 mph 23.0 mph 0.03 in Rain Rain
4:55 PM 48.2 °F - 44.6 °F 87% 29.70 in 7.0 mi SSE 18.4 mph 24.2 mph N/A Rain Light Rain
5:15 PM 48.2 °F - 46.4 °F 93% 29.69 in 10.0 mi SSE 15.0 mph 20.7 mph 0.01 in Rain Rain
5:35 PM 50.0 °F - 44.6 °F 82% 29.67 in 10.0 mi SSE 17.3 mph 21.9 mph 0.01 in Rain Light Rain
5:55 PM 48.2 °F - 44.6 °F 87% 29.67 in 7.0 mi South 20.7 mph 28.8 mph 0.03 in Rain Rain
6:15 PM 48.2 °F - 46.4 °F 93% 29.67 in 7.0 mi South 19.6 mph 28.8 mph 0.06 in Rain Rain
6:35 PM 48.2 °F - 46.4 °F 93% 29.66 in 10.0 mi South 16.1 mph 28.8 mph N/A Rain Rain
6:55 PM 48.2 °F - 46.4 °F 93% 29.65 in 10.0 mi South 23.0 mph 26.5 mph 0.01 in Rain Rain
7:15 PM 48.2 °F - 46.4 °F 93% 29.63 in 7.0 mi SSE 21.9 mph 29.9 mph 0.03 in Rain Rain
7:35 PM 48.2 °F - 46.4 °F 93% 29.65 in 7.0 mi South 17.3 mph 25.3 mph 0.09 in Rain Rain
7:55 PM 48.2 °F - 46.4 °F 93% 29.66 in 7.0 mi South 15.0 mph 28.8 mph 0.06 in Rain Heavy Rain
8:15 PM 48.2 °F - 46.4 °F 93% 29.65 in 10.0 mi South 15.0 mph 18.4 mph 0.12 in Rain Rain
8:35 PM 48.2 °F - 46.4 °F 93% 29.64 in 7.0 mi South 9.2 mph - 0.19 in Rain Heavy Rain
8:55 PM 48.2 °F - 46.4 °F 93% 29.61 in 10.0 mi South 19.6 mph 29.9 mph N/A Rain Light Rain
9:15 PM 48.2 °F - 46.4 °F 93% 29.61 in 10.0 mi South 9.2 mph 20.7 mph N/A   Overcast
9:35 PM 48.2 °F - 46.4 °F 93% 29.63 in 10.0 mi SSW 11.5 mph - N/A   Drizzle
9:55 PM - - - N/A% - - North - - N/A   Unknown
10:15 PM 42.8 °F 34.0 °F 39.2 °F 87% 29.70 in 10.0 mi WNW 20.7 mph 35.7 mph N/A   Overcast
10:35 PM 39.2 °F 28.5 °F 37.4 °F 93% 29.73 in 7.0 mi West 24.2 mph 33.4 mph N/A   Light Drizzle
10:55 PM 39.2 °F 29.0 °F 35.6 °F 87% 29.74 in 10.0 mi WNW 21.9 mph 29.9 mph N/A   Overcast
11:15 PM 39.2 °F 29.0 °F 35.6 °F 87% 29.76 in 10.0 mi WNW 21.9 mph 38.0 mph N/A   Overcast
11:35 PM 39.2 °F 30.2 °F 35.6 °F 87% 29.79 in 10.0 mi WNW 17.3 mph 28.8 mph N/A   Overcast
11:55 PM 37.4 °F 26.6 °F 35.6 °F 93% 29.80 in 10.0 mi West 21.9 mph 28.8 mph N/A   Overcast